Weather History for Wausau, WI

Change the Weather History Date:

Sunday, May 27, 2012

  Actual Average Record
Temperature  
Mean Temperature 70 °F 59 °F  
Max Temperature 82 °F 70 °F 88 °F (1978)
Min Temperature 58 °F 48 °F 32 °F (1906)
Degree Days  
Heating Degree Days 0 7  
Month to date heating degree days 150 283  
Since 1 July heating degree days 6650 8135  
Cooling Degree Days 5 1  
Month to date cooling degree days 27 10  
Year to date cooling degree days 37 12  
Growing Degree Days 20 (Base 50)    
Moisture  
Dew Point 62 °F    
Average Humidity 79    
Maximum Humidity 100    
Minimum Humidity 58    
Precipitation  
Precipitation 0.09 in 0.13 in 2.08 in (1969)
Month to date precipitation 3.69 2.97  
Year to date precipitation 9.68 9.40  
Snow  
Snow 0.00 in 0.00 in 0.00 in ()
Month to date snowfall 0.0 0.2  
Since 1 July snowfall 39.9 59.6  
Snow Depth 0.00 in    
Sea Level Pressure  
Sea Level Pressure 29.90 in    
Wind  
Wind Speed 11 mph (ESE)    
Max Wind Speed 25 mph    
Max Gust Speed 31 mph    
Visibility 9 miles    
Events Rain    
T = Trace of Precipitation, MM = Missing Value Source: NWS Daily Summary

Daily Weather History Graph

Daily Weather History Graph

Search for Another Location

Airport:

Trip Planner

Search our weather history database for the weather conditions in past years. The results will help you decide how hot, cold, wet, or windy it might be!

Date:

Astronomy

May. 27, 2012 Rise Set
Actual Time 5:18 AM CDT 8:33 PM CDT
Civil Twilight 4:42 AM CDT 9:09 PM CDT
Nautical Twilight 3:56 AM CDT 9:56 PM CDT
Astronomical Twilight 2:58 AM CDT 10:54 PM CDT
Moon 11:33 AM CDT (5/27) 12:32 AM CDT (5/27)
Length of Visible Light 16h 27m
Length of Day
15h 15m
Waxing Crescent, 38% of the Moon is Illuminated
May 27
Waxing Crescent
May 28
First Quarter
Jun 4
Full
Jun 11
Last Quarter
Jun 19
New

Hourly Weather History & Observations

Time (CDT) Temp. Heat Index Dew Point Humidity Pressure Visibility Wind Dir Wind Speed Gust Speed Precip Events Conditions
12:07 AM 62.6 °F - 60.8 °F 94% 29.99 in 2.5 mi ENE 5.8 mph - 0.07 in Rain Rain
12:14 AM 62.6 °F - 60.8 °F 94% 29.98 in 4.0 mi ESE 10.4 mph - 0.08 in Rain Light Rain
12:25 AM 62.6 °F - 60.8 °F 94% 29.98 in 7.0 mi East 8.1 mph - 0.08 in Rain Light Rain
12:54 AM 62.1 °F - 61.0 °F 96% 29.98 in 8.0 mi ESE 4.6 mph - 0.08 in   Partly Cloudy
1:54 AM 62.1 °F - 60.1 °F 93% 30.00 in 7.0 mi NE 8.1 mph - N/A   Overcast
2:03 AM 60.8 °F - 59.0 °F 94% 29.99 in 7.0 mi ENE 6.9 mph - N/A   Overcast
2:18 AM 60.8 °F - 59.0 °F 94% 29.99 in 6.0 mi ENE 8.1 mph - N/A   Overcast
2:44 AM 59.0 °F - 57.2 °F 94% 30.00 in 7.0 mi NE 9.2 mph - N/A   Overcast
3:11 AM 57.2 °F - 55.4 °F 94% 30.07 in 10.0 mi North 11.5 mph 27.6 mph N/A   Overcast
3:19 AM 59.0 °F - 55.4 °F 88% 30.07 in 10.0 mi NE 9.2 mph 23.0 mph N/A   Overcast
3:29 AM 60.8 °F - 55.4 °F 82% 30.00 in 9.0 mi East 25.3 mph 31.1 mph 0.01 in Rain Light Rain
3:54 AM 60.1 °F - 57.0 °F 90% 30.00 in 10.0 mi ESE 10.4 mph - 0.08 in Rain Light Rain
4:01 AM 60.8 °F - 57.2 °F 88% 29.98 in 10.0 mi East 9.2 mph - 0.00 in Rain Light Rain
4:54 AM 60.1 °F - 57.9 °F 93% 29.98 in 10.0 mi ESE 6.9 mph - 0.00 in   Mostly Cloudy
5:54 AM 60.1 °F - 59.0 °F 96% 29.97 in 10.0 mi ESE 6.9 mph - N/A   Overcast
6:29 AM 60.8 °F - 59.0 °F 94% 29.96 in 10.0 mi ESE 8.1 mph - N/A   Overcast
6:54 AM 61.0 °F - 59.0 °F 93% 29.99 in 10.0 mi ESE 9.2 mph - N/A   Overcast
7:54 AM 63.0 °F - 59.0 °F 87% 29.94 in 10.0 mi ESE 13.8 mph 20.7 mph 0.01 in   Clear
8:54 AM 66.0 °F - 59.0 °F 78% 29.92 in 10.0 mi ESE 16.1 mph 20.7 mph N/A   Clear
9:54 AM 70.0 °F - 61.0 °F 73% 29.90 in 10.0 mi SSE 16.1 mph 21.9 mph N/A   Clear
10:54 AM 72.0 °F - 62.1 °F 71% 29.88 in 10.0 mi SE 15.0 mph 20.7 mph N/A   Scattered Clouds
11:54 AM 73.9 °F - 63.0 °F 68% 29.85 in 10.0 mi SSE 15.0 mph 21.9 mph N/A   Clear
12:54 PM 77.0 °F - 64.0 °F 64% 29.83 in 10.0 mi SSE 13.8 mph 21.9 mph N/A   Clear
1:54 PM 79.0 °F - 64.9 °F 62% 29.85 in 10.0 mi SSW 6.9 mph - N/A   Clear
2:54 PM 80.1 °F 81.9 °F 64.9 °F 60% 29.84 in 10.0 mi SSE 9.2 mph - N/A   Clear
3:54 PM 82.0 °F 84.1 °F 66.0 °F 58% 29.81 in 10.0 mi SSE 13.8 mph - N/A   Clear
4:54 PM 81.0 °F 83.8 °F 68.0 °F 65% 29.79 in 10.0 mi SE 13.8 mph 19.6 mph N/A   Clear
5:54 PM 82.0 °F 85.5 °F 69.1 °F 65% 29.77 in 10.0 mi SSE 11.5 mph - N/A   Clear
6:54 PM 81.0 °F 84.4 °F 70.0 °F 69% 29.75 in 9.0 mi SSE 11.5 mph - N/A   Clear
7:54 PM 78.1 °F - 68.0 °F 71% 29.73 in 8.0 mi SSE 10.4 mph - N/A   Clear
8:54 PM 75.0 °F - 66.9 °F 76% 29.72 in 9.0 mi SE 6.9 mph - N/A   Clear
9:54 PM 71.1 °F - 66.9 °F 87% 29.72 in 7.0 mi ENE 3.5 mph - N/A   Clear
10:54 PM 71.1 °F - 66.0 °F 84% 29.72 in 7.0 mi SSE 9.2 mph - N/A   Clear
11:54 PM 73.9 °F - 64.0 °F 71% 29.72 in 10.0 mi South 5.8 mph - N/A   Clear